TimeAKST,TemperatureF,Dew PointF,Humidity,Sea Level PressureIn,VisibilityMPH,Wind Direction,Wind SpeedMPH,Gust SpeedMPH,PrecipitationIn,Events,Conditions,WindDirDegrees,DateUTC
12:52 AM,-17.0,-22.0,78,30.04,10.0,Calm,Calm,-,N/A,,Mostly Cloudy,0,2013-01-17 09:52:00
1:52 AM,-11.9,-17.0,78,30.03,10.0,Calm,Calm,-,N/A,,Overcast,0,2013-01-17 10:52:00
2:52 AM,-9.0,-14.1,79,30.03,10.0,Calm,Calm,-,N/A,,Overcast,0,2013-01-17 11:52:00
3:52 AM,-8.0,-13.0,79,30.03,10.0,Calm,Calm,-,N/A,,Overcast,0,2013-01-17 12:52:00
4:52 AM,-7.1,-11.9,79,30.02,10.0,NW,3.5,-,N/A,,Overcast,310,2013-01-17 13:52:00
5:52 AM,-8.0,-11.9,83,30.01,10.0,North,4.6,-,N/A,,Overcast,360,2013-01-17 14:52:00
6:52 AM,-9.0,-13.0,83,30.02,10.0,Calm,Calm,-,N/A,,Overcast,0,2013-01-17 15:52:00
7:52 AM,-9.9,-16.1,74,30.04,10.0,Calm,Calm,-,N/A,,Overcast,0,2013-01-17 16:52:00
8:52 AM,-9.9,-15.0,78,30.06,10.0,WSW,3.5,-,N/A,,Mostly Cloudy,250,2013-01-17 17:52:00
9:52 AM,-13.0,-18.0,78,30.08,10.0,Calm,Calm,-,N/A,,Mostly Cloudy,0,2013-01-17 18:52:00
10:52 AM,-11.0,-16.1,78,30.09,10.0,Calm,Calm,-,N/A,,Mostly Cloudy,0,2013-01-17 19:52:00
11:52 AM,-13.0,-17.0,82,30.11,10.0,Calm,Calm,-,N/A,,Mostly Cloudy,0,2013-01-17 20:52:00
12:52 PM,-11.0,-16.1,78,30.12,10.0,Calm,Calm,-,N/A,,Scattered Clouds,0,2013-01-17 21:52:00
1:52 PM,-8.0,-13.0,79,30.14,10.0,Calm,Calm,-,N/A,,Partly Cloudy,0,2013-01-17 22:52:00
2:52 PM,-11.0,-15.0,83,30.15,10.0,Calm,Calm,-,N/A,,Scattered Clouds,0,2013-01-17 23:52:00
3:52 PM,-17.0,-20.9,82,30.17,10.0,Calm,Calm,-,N/A,,Scattered Clouds,0,2013-01-18 00:52:00
4:52 PM,-22.0,-27.9,74,30.19,10.0,Calm,Calm,-,N/A,,Scattered Clouds,0,2013-01-18 01:52:00
5:52 PM,-24.0,-29.9,74,30.21,10.0,Calm,Calm,-,N/A,,Scattered Clouds,0,2013-01-18 02:52:00
6:52 PM,-25.1,-29.9,78,30.22,10.0,Calm,Calm,-,N/A,,Partly Cloudy,0,2013-01-18 03:52:00
7:52 PM,-26.0,-32.1,73,30.25,10.0,NW,3.5,-,N/A,,Clear,320,2013-01-18 04:52:00
8:52 PM,-27.9,-33.0,77,30.27,10.0,West,3.5,-,N/A,,Clear,270,2013-01-18 05:52:00
9:52 PM,-31.0,-9999,N/A,30.29,10.0,Calm,Calm,-,N/A,,Clear,0,2013-01-18 06:52:00
10:52 PM,-29.9,-9999,N/A,30.32,10.0,Calm,Calm,-,N/A,,Clear,0,2013-01-18 07:52:00
11:52 PM,-29.9,-9999,N/A,30.34,10.0,Calm,Calm,-,N/A,,Clear,0,2013-01-18 08:52:00